Time,TemperatureF,DewpointF,PressureIn,WindDirection,WindDirectionDegrees,WindSpeedMPH,WindSpeedGustMPH,Humidity,HourlyPrecipIn,Conditions,Clouds,dailyrainin,SoftwareType,DateUTC
2013-01-27 00:02:00,62.8,59.5,30.20,NW,326,0.0,0.0,89,0.00,,,0.00,meteohub,2013-01-27 05:02:00,
2013-01-27 00:06:00,62.8,59.5,30.20,NW,326,0.0,1.0,89,0.00,,,0.00,meteohub,2013-01-27 05:06:00,
2013-01-27 00:07:00,62.8,59.5,30.20,NW,326,0.0,1.0,89,0.00,,,0.00,meteohub,2013-01-27 05:07:00,
2013-01-27 00:12:00,62.8,59.5,30.20,NW,326,0.0,1.0,89,0.00,,,0.00,meteohub,2013-01-27 05:12:00,
2013-01-27 00:18:00,62.8,59.5,30.20,NW,326,0.0,1.0,89,0.00,,,0.00,meteohub,2013-01-27 05:18:00,
2013-01-27 00:24:00,62.8,59.5,30.20,NW,326,0.0,1.0,89,0.00,,,0.00,meteohub,2013-01-27 05:24:00,
2013-01-27 00:30:00,62.6,59.4,30.20,NW,326,0.0,1.0,89,0.00,,,0.00,meteohub,2013-01-27 05:30:00,
2013-01-27 00:36:00,62.4,59.2,30.20,NW,326,0.0,0.0,89,0.00,,,0.00,meteohub,2013-01-27 05:36:00,
2013-01-27 00:42:00,62.4,59.4,30.20,NNW,338,2.0,2.0,90,0.00,,,0.00,meteohub,2013-01-27 05:42:00,
2013-01-27 00:47:00,62.8,59.7,30.20,NNW,338,0.0,3.0,90,0.00,,,0.00,meteohub,2013-01-27 05:47:00,
2013-01-27 00:52:00,62.8,59.7,30.20,NNW,338,0.0,3.0,90,0.00,,,0.00,meteohub,2013-01-27 05:52:00,
2013-01-27 00:57:00,62.8,59.7,30.20,NNW,338,0.0,3.0,90,0.00,,,0.00,meteohub,2013-01-27 05:57:00,
2013-01-27 01:02:00,62.8,59.7,30.21,NNW,338,0.0,2.0,90,0.00,,,0.00,meteohub,2013-01-27 06:02:00,
2013-01-27 01:07:00,62.8,60.1,30.21,NNW,338,0.0,3.0,91,0.00,,,0.00,meteohub,2013-01-27 06:07:00,
2013-01-27 01:12:00,62.4,59.4,30.21,NNW,338,0.0,3.0,90,0.00,,,0.00,meteohub,2013-01-27 06:12:00,
2013-01-27 01:17:00,62.4,59.4,30.21,NNW,338,0.0,3.0,90,0.00,,,0.00,meteohub,2013-01-27 06:17:00,
2013-01-27 01:22:00,62.4,59.4,30.21,NNW,337,0.0,3.0,90,0.00,,,0.00,meteohub,2013-01-27 06:22:00,
2013-01-27 01:28:00,62.2,59.5,30.21,NNW,338,0.0,3.0,91,0.00,,,0.00,meteohub,2013-01-27 06:28:00,
2013-01-27 01:34:00,62.2,59.5,30.21,NNW,337,0.0,2.0,91,0.00,,,0.00,meteohub,2013-01-27 06:34:00,
2013-01-27 01:40:00,62.1,59.4,30.21,NNW,337,0.0,2.0,91,0.00,,,0.00,meteohub,2013-01-27 06:40:00,
2013-01-27 01:46:00,61.9,59.2,30.21,NNW,338,0.0,2.0,91,0.00,,,0.00,meteohub,2013-01-27 06:46:00,
2013-01-27 01:52:00,61.5,58.8,30.21,NNW,338,0.0,2.0,91,0.00,,,0.00,meteohub,2013-01-27 06:52:00,
2013-01-27 01:57:00,61.3,58.6,30.21,North,359,0.0,2.0,91,0.00,,,0.00,meteohub,2013-01-27 06:57:00,
2013-01-27 02:02:00,61.2,58.8,30.21,NNW,337,0.0,1.0,92,0.00,,,0.00,meteohub,2013-01-27 07:02:00,
2013-01-27 02:07:00,61.2,58.8,30.21,North,359,1.0,0.0,92,0.00,,,0.00,meteohub,2013-01-27 07:07:00,
2013-01-27 02:13:00,61.2,59.2,30.21,NNW,337,0.0,1.0,93,0.00,,,0.00,meteohub,2013-01-27 07:13:00,
2013-01-27 02:19:00,61.0,59.0,30.21,NNW,337,0.0,1.0,93,0.00,,,0.00,meteohub,2013-01-27 07:19:00,
2013-01-27 02:25:00,61.0,59.0,30.21,North,359,0.0,1.0,93,0.00,,,0.00,meteohub,2013-01-27 07:25:00,
2013-01-27 02:31:00,60.6,58.6,30.21,NNW,338,0.0,0.0,93,0.00,,,0.00,meteohub,2013-01-27 07:31:00,
2013-01-27 02:37:00,60.4,58.5,30.20,NNW,337,0.0,0.0,93,0.00,,,0.00,meteohub,2013-01-27 07:37:00,
2013-01-27 02:42:00,60.4,58.5,30.20,NNW,338,0.0,0.0,93,0.00,,,0.00,meteohub,2013-01-27 07:42:00,
2013-01-27 02:47:00,60.3,58.3,30.20,NNW,337,0.0,0.0,93,0.00,,,0.00,meteohub,2013-01-27 07:47:00,
2013-01-27 02:52:00,60.3,58.5,30.20,NNW,337,0.0,0.0,94,0.00,,,0.00,meteohub,2013-01-27 07:52:00,
2013-01-27 02:57:00,60.1,58.3,30.20,NNW,337,0.0,0.0,94,0.00,,,0.00,meteohub,2013-01-27 07:57:00,
2013-01-27 03:02:00,59.9,58.1,30.20,NNW,337,0.0,1.0,94,0.00,,,0.00,meteohub,2013-01-27 08:02:00,
2013-01-27 03:07:00,59.7,57.9,30.20,NNW,337,0.0,1.0,94,0.00,,,0.00,meteohub,2013-01-27 08:07:00,
2013-01-27 03:12:00,59.5,57.7,30.21,North,359,0.0,1.0,94,0.00,,,0.00,meteohub,2013-01-27 08:12:00,
2013-01-27 03:17:00,59.4,57.6,30.20,NNW,337,0.0,0.0,94,0.00,,,0.00,meteohub,2013-01-27 08:17:00,
2013-01-27 03:22:00,59.4,57.6,30.21,NNW,337,0.0,0.0,94,0.00,,,0.00,meteohub,2013-01-27 08:22:00,
2013-01-27 03:27:00,59.2,57.4,30.21,NNW,338,0.0,0.0,94,0.00,,,0.00,meteohub,2013-01-27 08:27:00,
2013-01-27 03:32:00,59.2,57.4,30.21,NNW,337,0.0,0.0,94,0.00,,,0.00,meteohub,2013-01-27 08:32:00,
2013-01-27 03:37:00,59.0,57.2,30.21,NNW,337,0.0,0.0,94,0.00,,,0.00,meteohub,2013-01-27 08:37:00,
2013-01-27 03:42:00,58.8,57.4,30.21,North,359,0.0,0.0,95,0.00,,,0.00,meteohub,2013-01-27 08:42:00,
2013-01-27 03:47:00,58.8,57.4,30.21,NNW,337,0.0,0.0,95,0.00,,,0.00,meteohub,2013-01-27 08:47:00,
2013-01-27 03:52:00,58.6,57.2,30.21,North,359,0.0,0.0,95,0.00,,,0.00,meteohub,2013-01-27 08:52:00,
2013-01-27 03:57:00,58.6,57.2,30.21,NNW,337,0.0,0.0,95,0.00,,,0.00,meteohub,2013-01-27 08:57:00,
2013-01-27 04:02:00,58.5,57.0,30.21,NNW,337,0.0,0.0,95,0.00,,,0.00,meteohub,2013-01-27 09:02:00,
2013-01-27 04:07:00,58.6,57.2,30.21,NNW,337,0.0,1.0,95,0.00,,,0.00,meteohub,2013-01-27 09:07:00,
2013-01-27 04:12:00,58.6,57.2,30.21,North,359,0.0,1.0,95,0.00,,,0.00,meteohub,2013-01-27 09:12:00,
2013-01-27 04:17:00,58.6,57.2,30.21,NNW,337,0.0,1.0,95,0.00,,,0.00,meteohub,2013-01-27 09:17:00,
2013-01-27 04:22:00,58.6,57.2,30.20,North,359,1.0,1.0,95,0.00,,,0.00,meteohub,2013-01-27 09:22:00,
2013-01-27 04:27:00,58.8,57.7,30.21,North,4,1.0,2.0,96,0.00,,,0.00,meteohub,2013-01-27 09:27:00,
2013-01-27 04:32:00,59.2,58.1,30.20,NE,37,3.0,3.0,96,0.00,,,0.00,meteohub,2013-01-27 09:32:00,
2013-01-27 04:37:00,59.0,57.9,30.20,NE,37,1.0,3.0,96,0.00,,,0.00,meteohub,2013-01-27 09:37:00,
2013-01-27 04:42:00,58.8,57.4,30.20,NE,37,0.0,3.0,95,0.00,,,0.00,meteohub,2013-01-27 09:42:00,
2013-01-27 04:47:00,58.8,57.4,30.21,NE,37,0.0,3.0,95,0.00,,,0.00,meteohub,2013-01-27 09:47:00,
2013-01-27 04:52:00,58.6,57.2,30.20,NE,37,0.0,3.0,95,0.00,,,0.00,meteohub,2013-01-27 09:52:00,
2013-01-27 04:57:00,58.5,57.0,30.20,NE,37,0.0,3.0,95,0.00,,,0.00,meteohub,2013-01-27 09:57:00,
2013-01-27 05:02:00,58.3,56.8,30.20,NE,37,0.0,2.0,95,0.00,,,0.00,meteohub,2013-01-27 10:02:00,
2013-01-27 05:07:00,58.3,56.8,30.21,NE,37,0.0,1.0,95,0.00,,,0.00,meteohub,2013-01-27 10:07:00,
2013-01-27 05:12:00,58.3,56.8,30.21,NE,37,1.0,1.0,95,0.00,,,0.00,meteohub,2013-01-27 10:12:00,
2013-01-27 05:17:00,58.5,57.0,30.21,NE,37,0.0,2.0,95,0.00,,,0.00,meteohub,2013-01-27 10:17:00,
2013-01-27 05:22:00,58.5,57.0,30.21,NE,37,0.0,2.0,95,0.00,,,0.00,meteohub,2013-01-27 10:22:00,
2013-01-27 05:27:00,58.5,57.4,30.21,NE,37,0.0,2.0,96,0.00,,,0.00,meteohub,2013-01-27 10:27:00,
2013-01-27 05:32:00,58.5,57.0,30.21,NE,37,1.0,2.0,95,0.00,,,0.00,meteohub,2013-01-27 10:32:00,
2013-01-27 05:37:00,58.5,57.0,30.21,NE,37,2.0,3.0,95,0.00,,,0.00,meteohub,2013-01-27 10:37:00,
2013-01-27 05:42:00,58.5,57.0,30.21,NNE,29,0.0,3.0,95,0.00,,,0.00,meteohub,2013-01-27 10:42:00,
2013-01-27 05:47:00,58.3,56.8,30.21,NNE,29,1.0,3.0,95,0.00,,,0.00,meteohub,2013-01-27 10:47:00,
2013-01-27 05:52:00,57.9,56.5,30.21,NNE,30,1.0,3.0,95,0.00,,,0.00,meteohub,2013-01-27 10:52:00,
2013-01-27 05:57:00,57.7,56.3,30.22,NNE,29,0.0,3.0,95,0.00,,,0.00,meteohub,2013-01-27 10:57:00,
2013-01-27 06:02:00,57.7,56.3,30.22,NNE,30,0.0,2.0,95,0.00,,,0.00,meteohub,2013-01-27 11:02:00,
2013-01-27 06:07:00,57.6,56.1,30.22,NNE,29,0.0,2.0,95,0.00,,,0.00,meteohub,2013-01-27 11:07:00,
2013-01-27 06:12:00,57.6,56.1,30.22,NNE,29,0.0,2.0,95,0.00,,,0.00,meteohub,2013-01-27 11:12:00,
2013-01-27 06:17:00,57.7,56.3,30.22,NNE,32,0.0,2.0,95,0.00,,,0.00,meteohub,2013-01-27 11:17:00,
2013-01-27 06:22:00,57.7,56.3,30.22,NNE,33,1.0,2.0,95,0.00,,,0.00,meteohub,2013-01-27 11:22:00,
2013-01-27 06:27:00,57.6,56.1,30.23,NNE,33,0.0,2.0,95,0.00,,,0.00,meteohub,2013-01-27 11:27:00,
2013-01-27 06:32:00,57.6,56.1,30.23,NE,37,0.0,3.0,95,0.00,,,0.00,meteohub,2013-01-27 11:32:00,
2013-01-27 06:37:00,57.0,55.6,30.23,East,95,0.0,3.0,95,0.00,,,0.00,meteohub,2013-01-27 11:37:00,
2013-01-27 06:42:00,56.8,55.4,30.23,ESE,118,0.0,3.0,95,0.00,,,0.00,meteohub,2013-01-27 11:42:00,
2013-01-27 06:47:00,56.3,54.9,30.24,SE,137,0.0,3.0,95,0.00,,,0.00,meteohub,2013-01-27 11:47:00,
2013-01-27 06:52:00,55.9,54.5,30.24,SE,138,1.0,3.0,95,0.00,,,0.00,meteohub,2013-01-27 11:52:00,
2013-01-27 06:57:00,55.8,54.3,30.24,SE,137,0.0,3.0,95,0.00,,,0.00,meteohub,2013-01-27 11:57:00,
2013-01-27 07:02:00,55.9,54.9,30.24,SE,138,1.0,3.0,96,0.00,,,0.00,meteohub,2013-01-27 12:02:00,
2013-01-27 07:07:00,55.9,54.9,30.24,SE,137,0.0,2.0,96,0.00,,,0.00,meteohub,2013-01-27 12:07:00,
2013-01-27 07:12:00,55.9,54.9,30.24,SE,137,0.0,2.0,96,0.00,,,0.00,meteohub,2013-01-27 12:12:00,
2013-01-27 07:17:00,56.3,55.2,30.24,SE,137,0.0,2.0,96,0.00,,,0.00,meteohub,2013-01-27 12:17:00,
2013-01-27 07:22:00,56.3,55.2,30.24,SE,133,1.0,2.0,96,0.00,,,0.00,meteohub,2013-01-27 12:22:00,
2013-01-27 07:27:00,56.5,55.4,30.24,ESE,118,0.0,3.0,96,0.00,,,0.00,meteohub,2013-01-27 12:27:00,
2013-01-27 07:32:00,56.5,55.4,30.24,ESE,117,1.0,3.0,96,0.00,,,0.00,meteohub,2013-01-27 12:32:00,
2013-01-27 07:37:00,56.7,55.6,30.24,ESE,110,0.0,3.0,96,0.00,,,0.00,meteohub,2013-01-27 12:37:00,
2013-01-27 07:42:00,56.8,55.9,30.25,ESE,110,0.0,3.0,97,0.00,,,0.00,meteohub,2013-01-27 12:42:00,
2013-01-27 07:47:00,57.0,56.1,30.25,ESE,110,0.0,3.0,97,0.00,,,0.00,meteohub,2013-01-27 12:47:00,
2013-01-27 07:52:00,57.2,56.3,30.25,ESE,105,1.0,2.0,97,0.00,,,0.00,meteohub,2013-01-27 12:52:00,
2013-01-27 07:57:00,57.4,56.5,30.25,East,97,2.0,3.0,97,0.00,,,0.00,meteohub,2013-01-27 12:57:00,
2013-01-27 08:02:00,57.6,56.7,30.25,East,90,3.0,3.0,97,0.00,,,0.00,meteohub,2013-01-27 13:02:00,
2013-01-27 08:07:00,57.7,56.8,30.25,East,93,2.0,5.0,97,0.00,,,0.00,meteohub,2013-01-27 13:07:00,
2013-01-27 08:12:00,57.9,57.0,30.25,East,95,2.0,6.0,97,0.00,,,0.00,meteohub,2013-01-27 13:12:00,
2013-01-27 08:17:00,58.3,57.4,30.25,East,100,3.0,6.0,97,0.00,,,0.00,meteohub,2013-01-27 13:17:00,
2013-01-27 08:22:00,58.5,57.6,30.25,East,100,1.0,7.0,97,0.00,,,0.00,meteohub,2013-01-27 13:22:00,
2013-01-27 08:27:00,58.6,57.7,30.25,East,89,5.0,7.0,97,0.00,,,0.00,meteohub,2013-01-27 13:27:00,
2013-01-27 08:32:00,58.8,57.9,30.25,East,93,2.0,7.0,97,0.00,,,0.00,meteohub,2013-01-27 13:32:00,
2013-01-27 08:37:00,59.2,58.1,30.25,East,91,2.0,6.0,96,0.00,,,0.00,meteohub,2013-01-27 13:37:00,
2013-01-27 08:42:00,59.5,58.6,30.26,East,95,0.0,6.0,97,0.00,,,0.00,meteohub,2013-01-27 13:42:00,
2013-01-27 08:47:00,59.7,58.6,30.26,East,91,2.0,6.0,96,0.00,,,0.00,meteohub,2013-01-27 13:47:00,
2013-01-27 08:52:00,60.1,59.0,30.26,East,81,2.0,6.0,96,0.00,,,0.00,meteohub,2013-01-27 13:52:00,
2013-01-27 08:57:00,60.3,59.2,30.26,ESE,108,3.0,6.0,96,0.00,,,0.00,meteohub,2013-01-27 13:57:00,
2013-01-27 09:02:00,60.4,59.4,30.26,East,87,2.0,6.0,96,0.00,,,0.00,meteohub,2013-01-27 14:02:00,
2013-01-27 09:07:00,61.0,59.9,30.26,East,84,0.0,6.0,96,0.00,,,0.00,meteohub,2013-01-27 14:07:00,
2013-01-27 09:12:00,61.3,59.9,30.27,ESE,105,2.0,6.0,95,0.00,,,0.00,meteohub,2013-01-27 14:12:00,
2013-01-27 09:17:00,61.9,60.4,30.27,ENE,75,3.0,6.0,95,0.00,,,0.00,meteohub,2013-01-27 14:17:00,
2013-01-27 09:22:00,62.2,60.4,30.27,ENE,77,3.0,6.0,94,0.00,,,0.00,meteohub,2013-01-27 14:22:00,
2013-01-27 09:27:00,62.6,60.8,30.27,East,95,3.0,6.0,94,0.00,,,0.00,meteohub,2013-01-27 14:27:00,
2013-01-27 09:32:00,63.1,61.2,30.27,East,98,5.0,7.0,93,0.00,,,0.00,meteohub,2013-01-27 14:32:00,
2013-01-27 09:37:00,63.3,61.0,30.27,East,83,5.0,8.0,92,0.00,,,0.00,meteohub,2013-01-27 14:37:00,
2013-01-27 09:42:00,63.7,61.0,30.27,East,92,2.0,8.0,91,0.00,,,0.00,meteohub,2013-01-27 14:42:00,
2013-01-27 09:47:00,64.2,61.2,30.27,ENE,60,4.0,8.0,90,0.00,,,0.00,meteohub,2013-01-27 14:47:00,
2013-01-27 09:52:00,64.6,61.3,30.27,East,87,6.0,9.0,89,0.00,,,0.00,meteohub,2013-01-27 14:52:00,
2013-01-27 09:57:00,65.1,61.2,30.27,East,93,7.0,9.0,87,0.00,,,0.00,meteohub,2013-01-27 14:57:00,
2013-01-27 10:02:00,65.5,61.2,30.27,East,88,5.0,9.0,86,0.00,,,0.00,meteohub,2013-01-27 15:02:00,
2013-01-27 10:07:00,65.8,60.8,30.27,East,101,7.0,9.0,84,0.00,,,0.00,meteohub,2013-01-27 15:07:00,
2013-01-27 10:12:00,66.0,60.4,30.27,ESE,103,8.0,11.0,82,0.00,,,0.00,meteohub,2013-01-27 15:12:00,
2013-01-27 10:17:00,66.4,60.4,30.28,ENE,77,7.0,12.0,81,0.00,,,0.00,meteohub,2013-01-27 15:17:00,
2013-01-27 10:22:00,66.7,60.1,30.27,East,84,8.0,12.0,79,0.00,,,0.00,meteohub,2013-01-27 15:22:00,
2013-01-27 10:27:00,66.7,59.4,30.28,East,89,6.0,12.0,77,0.00,,,0.00,meteohub,2013-01-27 15:27:00,
2013-01-27 10:32:00,67.3,59.5,30.27,East,85,8.0,11.0,76,0.00,,,0.00,meteohub,2013-01-27 15:32:00,
2013-01-27 10:37:00,67.3,59.0,30.27,ENE,78,10.0,12.0,75,0.00,,,0.00,meteohub,2013-01-27 15:37:00,
2013-01-27 10:42:00,67.6,59.7,30.27,East,86,7.0,12.0,76,0.00,,,0.00,meteohub,2013-01-27 15:42:00,
2013-01-27 10:47:00,68.2,60.3,30.27,East,97,3.0,12.0,76,0.00,,,0.00,meteohub,2013-01-27 15:47:00,
2013-01-27 10:52:00,68.9,60.3,30.28,South,177,3.0,12.0,74,0.00,,,0.00,meteohub,2013-01-27 15:52:00,
2013-01-27 10:57:00,69.6,59.7,30.27,ESE,117,5.0,9.0,71,0.00,,,0.00,meteohub,2013-01-27 15:57:00,
2013-01-27 11:02:00,69.6,59.0,30.27,SE,125,4.0,10.0,69,0.00,,,0.00,meteohub,2013-01-27 16:02:00,
2013-01-27 11:07:00,70.0,59.7,30.27,SSE,154,4.0,10.0,70,0.00,,,0.00,meteohub,2013-01-27 16:07:00,
2013-01-27 11:12:00,70.3,58.8,30.27,ESE,110,9.0,10.0,67,0.00,,,0.00,meteohub,2013-01-27 16:12:00,
2013-01-27 11:17:00,70.5,58.6,30.27,ESE,112,2.0,13.0,66,0.00,,,0.00,meteohub,2013-01-27 16:17:00,
2013-01-27 11:22:00,70.5,58.6,30.27,ESE,102,8.0,13.0,66,0.00,,,0.00,meteohub,2013-01-27 16:22:00,
2013-01-27 11:27:00,70.5,58.6,30.27,East,79,7.0,12.0,66,0.00,,,0.00,meteohub,2013-01-27 16:27:00,
2013-01-27 11:32:00,70.5,58.6,30.27,ESE,108,10.0,13.0,66,0.00,,,0.00,meteohub,2013-01-27 16:32:00,
2013-01-27 11:37:00,70.9,58.5,30.27,ENE,77,5.0,13.0,65,0.00,,,0.00,meteohub,2013-01-27 16:37:00,
2013-01-27 11:42:00,70.5,57.7,30.26,ESE,104,10.0,13.0,64,0.00,,,0.00,meteohub,2013-01-27 16:42:00,
2013-01-27 11:47:00,70.7,58.3,30.26,East,93,7.0,13.0,65,0.00,,,0.00,meteohub,2013-01-27 16:47:00,
2013-01-27 11:52:00,71.2,58.5,30.26,ESE,113,3.0,12.0,64,0.00,,,0.00,meteohub,2013-01-27 16:52:00,
2013-01-27 11:57:00,72.1,58.8,30.26,East,89,8.0,11.0,63,0.00,,,0.00,meteohub,2013-01-27 16:57:00,
2013-01-27 12:02:00,72.7,58.5,30.26,SE,129,6.0,10.0,61,0.00,,,0.00,meteohub,2013-01-27 17:02:00,
2013-01-27 12:07:00,72.7,57.9,30.25,ESE,102,8.0,10.0,60,0.00,,,0.00,meteohub,2013-01-27 17:07:00,
2013-01-27 12:12:00,72.7,57.9,30.25,East,101,4.0,10.0,60,0.00,,,0.00,meteohub,2013-01-27 17:12:00,
2013-01-27 12:17:00,73.0,56.5,30.25,ESE,111,9.0,10.0,56,0.00,,,0.00,meteohub,2013-01-27 17:17:00,
2013-01-27 12:22:00,73.0,56.5,30.25,SE,130,7.0,12.0,56,0.00,,,0.00,meteohub,2013-01-27 17:22:00,
2013-01-27 12:27:00,73.2,56.7,30.25,ESE,123,7.0,12.0,56,0.00,,,0.00,meteohub,2013-01-27 17:27:00,
2013-01-27 12:32:00,73.6,57.4,30.25,ESE,106,4.0,12.0,57,0.00,,,0.00,meteohub,2013-01-27 17:32:00,
2013-01-27 12:37:00,74.1,57.9,30.25,SSE,161,2.0,10.0,57,0.00,,,0.00,meteohub,2013-01-27 17:37:00,
2013-01-27 12:42:00,74.1,57.4,30.24,ESE,103,7.0,9.0,56,0.00,,,0.00,meteohub,2013-01-27 17:42:00,
2013-01-27 12:47:00,74.3,56.7,30.24,ESE,119,2.0,9.0,54,0.00,,,0.00,meteohub,2013-01-27 17:47:00,
2013-01-27 12:52:00,74.7,57.4,30.23,South,170,4.0,9.0,55,0.00,,,0.00,meteohub,2013-01-27 17:52:00,
2013-01-27 12:57:00,74.5,57.2,30.23,ESE,108,4.0,9.0,55,0.00,,,0.00,meteohub,2013-01-27 17:57:00,
2013-01-27 13:02:00,74.8,57.6,30.23,East,83,5.0,9.0,55,0.00,,,0.00,meteohub,2013-01-27 18:02:00,
2013-01-27 13:07:00,74.8,57.0,30.22,East,96,5.0,9.0,54,0.00,,,0.00,meteohub,2013-01-27 18:07:00,
2013-01-27 13:12:00,75.0,56.7,30.22,East,97,2.0,9.0,53,0.00,,,0.00,meteohub,2013-01-27 18:12:00,
2013-01-27 13:17:00,75.4,57.0,30.22,SE,139,5.0,9.0,53,0.00,,,0.00,meteohub,2013-01-27 18:17:00,
2013-01-27 13:22:00,75.4,56.5,30.22,SE,124,4.0,9.0,52,0.00,,,0.00,meteohub,2013-01-27 18:22:00,
2013-01-27 13:27:00,75.4,56.5,30.22,SSE,157,3.0,9.0,52,0.00,,,0.00,meteohub,2013-01-27 18:27:00,
2013-01-27 13:32:00,75.7,56.8,30.21,East,87,5.0,9.0,52,0.00,,,0.00,meteohub,2013-01-27 18:32:00,
2013-01-27 13:37:00,76.1,56.7,30.21,East,83,7.0,9.0,51,0.00,,,0.00,meteohub,2013-01-27 18:37:00,
2013-01-27 13:42:00,75.7,55.8,30.21,SSE,156,2.0,9.0,50,0.00,,,0.00,meteohub,2013-01-27 18:42:00,
2013-01-27 13:47:00,75.7,56.3,30.21,East,100,2.0,9.0,51,0.00,,,0.00,meteohub,2013-01-27 18:47:00,
2013-01-27 13:52:00,75.7,55.8,30.21,South,169,2.0,10.0,50,0.00,,,0.00,meteohub,2013-01-27 18:52:00,
2013-01-27 13:57:00,75.9,55.4,30.20,SSE,154,5.0,10.0,49,0.00,,,0.00,meteohub,2013-01-27 18:57:00,
2013-01-27 14:02:00,76.1,55.6,30.20,ENE,67,8.0,10.0,49,0.00,,,0.00,meteohub,2013-01-27 19:02:00,
2013-01-27 14:07:00,75.9,55.4,30.20,ESE,113,3.0,10.0,49,0.00,,,0.00,meteohub,2013-01-27 19:07:00,
2013-01-27 14:12:00,76.3,55.8,30.20,East,95,1.0,10.0,49,0.00,,,0.00,meteohub,2013-01-27 19:12:00,
2013-01-27 14:17:00,76.5,54.7,30.20,East,100,5.0,10.0,47,0.00,,,0.00,meteohub,2013-01-27 19:17:00,
2013-01-27 14:22:00,76.8,55.0,30.20,SE,137,3.0,9.0,47,0.00,,,0.00,meteohub,2013-01-27 19:22:00,
2013-01-27 14:27:00,77.2,55.4,30.20,ESE,102,7.0,10.0,47,0.00,,,0.00,meteohub,2013-01-27 19:27:00,
2013-01-27 14:32:00,76.8,55.0,30.20,East,87,8.0,10.0,47,0.00,,,0.00,meteohub,2013-01-27 19:32:00,
2013-01-27 14:37:00,76.6,54.9,30.20,East,89,3.0,10.0,47,0.00,,,0.00,meteohub,2013-01-27 19:37:00,
2013-01-27 14:42:00,77.0,55.2,30.20,East,82,5.0,10.0,47,0.00,,,0.00,meteohub,2013-01-27 19:42:00,
2013-01-27 14:47:00,77.2,54.9,30.19,East,87,5.0,9.0,46,0.00,,,0.00,meteohub,2013-01-27 19:47:00,
2013-01-27 14:52:00,76.3,61.0,30.19,West,279,1.0,8.0,59,0.00,,,0.00,meteohub,2013-01-27 19:52:00,
2013-01-27 14:57:00,75.4,61.0,30.19,West,268,3.0,8.0,61,0.00,,,0.00,meteohub,2013-01-27 19:57:00,
2013-01-27 15:02:00,74.1,61.2,30.19,SSE,161,0.0,8.0,64,0.00,,,0.00,meteohub,2013-01-27 20:02:00,
2013-01-27 15:07:00,73.6,61.2,30.19,North,10,2.0,7.0,65,0.00,,,0.00,meteohub,2013-01-27 20:07:00,
2013-01-27 15:12:00,72.9,60.8,30.19,North,350,5.0,8.0,66,0.00,,,0.00,meteohub,2013-01-27 20:12:00,
2013-01-27 15:17:00,72.9,60.4,30.18,NNW,333,5.0,8.0,65,0.00,,,0.00,meteohub,2013-01-27 20:17:00,
2013-01-27 15:22:00,72.9,59.5,30.18,NNW,343,3.0,8.0,63,0.00,,,0.00,meteohub,2013-01-27 20:22:00,
2013-01-27 15:27:00,72.9,59.9,30.18,West,270,4.0,8.0,64,0.00,,,0.00,meteohub,2013-01-27 20:27:00,
2013-01-27 15:32:00,73.2,59.9,30.18,NW,322,7.0,8.0,63,0.00,,,0.00,meteohub,2013-01-27 20:32:00,
2013-01-27 15:37:00,73.0,59.7,30.18,North,8,3.0,8.0,63,0.00,,,0.00,meteohub,2013-01-27 20:37:00,
2013-01-27 15:42:00,72.9,59.9,30.18,NNW,343,1.0,8.0,64,0.00,,,0.00,meteohub,2013-01-27 20:42:00,
2013-01-27 15:47:00,72.7,60.3,30.18,WNW,284,2.0,8.0,65,0.00,,,0.00,meteohub,2013-01-27 20:47:00,
2013-01-27 15:54:00,71.6,59.7,30.18,NNW,341,6.0,9.0,66,0.00,,,0.00,meteohub,2013-01-27 20:54:00,
2013-01-27 16:00:00,71.6,60.1,30.18,North,4,4.0,9.0,67,0.00,,,0.00,meteohub,2013-01-27 21:00:00,
2013-01-27 16:06:00,71.6,60.1,30.18,NNW,343,7.0,8.0,67,0.00,,,0.00,meteohub,2013-01-27 21:06:00,
2013-01-27 16:12:00,70.9,59.7,30.18,NW,322,5.0,10.0,68,0.00,,,0.00,meteohub,2013-01-27 21:12:00,
2013-01-27 16:17:00,70.9,59.7,30.18,NE,39,0.0,10.0,68,0.00,,,0.00,meteohub,2013-01-27 21:17:00,
2013-01-27 16:22:00,71.2,60.1,30.18,WNW,297,3.0,10.0,68,0.00,,,0.00,meteohub,2013-01-27 21:22:00,
2013-01-27 16:27:00,71.2,60.6,30.19,North,8,4.0,7.0,69,0.00,,,0.00,meteohub,2013-01-27 21:27:00,
2013-01-27 16:32:00,70.7,60.8,30.18,North,359,6.0,8.0,71,0.00,,,0.00,meteohub,2013-01-27 21:32:00,
2013-01-27 16:37:00,70.5,61.0,30.18,NNW,328,1.0,8.0,72,0.00,,,0.00,meteohub,2013-01-27 21:37:00,
2013-01-27 16:42:00,70.7,61.2,30.19,NW,312,3.0,8.0,72,0.00,,,0.00,meteohub,2013-01-27 21:42:00,
2013-01-27 16:47:00,70.5,61.0,30.19,NW,312,0.0,8.0,72,0.00,,,0.00,meteohub,2013-01-27 21:47:00,
2013-01-27 16:52:00,70.5,60.6,30.19,NW,326,3.0,8.0,71,0.00,,,0.00,meteohub,2013-01-27 21:52:00,
2013-01-27 16:57:00,70.5,60.6,30.19,North,359,2.0,7.0,71,0.00,,,0.00,meteohub,2013-01-27 21:57:00,
2013-01-27 17:02:00,70.3,60.4,30.19,NNE,19,3.0,8.0,71,0.00,,,0.00,meteohub,2013-01-27 22:02:00,
2013-01-27 17:07:00,70.3,60.8,30.19,North,4,4.0,8.0,72,0.00,,,0.00,meteohub,2013-01-27 22:07:00,
2013-01-27 17:12:00,70.0,60.6,30.19,NW,314,4.0,7.0,72,0.00,,,0.00,meteohub,2013-01-27 22:12:00,
2013-01-27 17:17:00,70.0,61.0,30.19,North,359,6.0,8.0,73,0.00,,,0.00,meteohub,2013-01-27 22:17:00,
2013-01-27 17:22:00,69.8,61.2,30.19,North,354,5.0,8.0,74,0.00,,,0.00,meteohub,2013-01-27 22:22:00,
2013-01-27 17:27:00,69.6,61.0,30.20,NNW,334,3.0,8.0,74,0.00,,,0.00,meteohub,2013-01-27 22:27:00,
2013-01-27 17:32:00,69.4,61.2,30.20,NNW,328,5.0,8.0,75,0.00,,,0.00,meteohub,2013-01-27 22:32:00,
2013-01-27 17:37:00,69.3,61.3,30.20,North,359,5.0,7.0,76,0.00,,,0.00,meteohub,2013-01-27 22:37:00,
2013-01-27 17:42:00,69.1,61.2,30.20,North,354,5.0,7.0,76,0.00,,,0.00,meteohub,2013-01-27 22:42:00,
2013-01-27 17:47:00,68.9,61.0,30.20,North,354,2.0,7.0,76,0.00,,,0.00,meteohub,2013-01-27 22:47:00,
2013-01-27 17:52:00,68.7,61.2,30.21,NNW,339,2.0,7.0,77,0.00,,,0.00,meteohub,2013-01-27 22:52:00,
2013-01-27 17:57:00,68.4,61.2,30.21,NW,318,0.0,7.0,78,0.00,,,0.00,meteohub,2013-01-27 22:57:00,
2013-01-27 18:02:00,68.2,61.7,30.21,North,354,4.0,5.0,80,0.00,,,0.00,meteohub,2013-01-27 23:02:00,
2013-01-27 18:07:00,67.8,61.7,30.21,NNW,327,2.0,5.0,81,0.00,,,0.00,meteohub,2013-01-27 23:07:00,
2013-01-27 18:12:00,67.6,61.5,30.21,NNW,348,3.0,5.0,81,0.00,,,0.00,meteohub,2013-01-27 23:12:00,
2013-01-27 18:17:00,67.5,61.7,30.21,NNW,338,2.0,5.0,82,0.00,,,0.00,meteohub,2013-01-27 23:17:00,
2013-01-27 18:22:00,67.3,61.9,30.22,North,359,3.0,5.0,83,0.00,,,0.00,meteohub,2013-01-27 23:22:00,
2013-01-27 18:27:00,67.3,61.9,30.22,North,354,2.0,4.0,83,0.00,,,0.00,meteohub,2013-01-27 23:27:00,
2013-01-27 18:32:00,66.9,61.9,30.22,NNE,19,3.0,6.0,84,0.00,,,0.00,meteohub,2013-01-27 23:32:00,
2013-01-27 18:37:00,66.7,61.7,30.22,North,349,4.0,6.0,84,0.00,,,0.00,meteohub,2013-01-27 23:37:00,
2013-01-27 18:42:00,66.6,61.9,30.22,North,9,3.0,6.0,85,0.00,,,0.00,meteohub,2013-01-27 23:42:00,
2013-01-27 18:47:00,66.4,62.1,30.22,North,359,2.0,6.0,86,0.00,,,0.00,meteohub,2013-01-27 23:47:00,
2013-01-27 18:52:00,66.4,62.1,30.22,North,359,2.0,6.0,86,0.00,,,0.00,meteohub,2013-01-27 23:52:00,
2013-01-27 18:57:00,66.2,61.9,30.22,NNW,339,2.0,6.0,86,0.00,,,0.00,meteohub,2013-01-27 23:57:00,
2013-01-27 19:02:00,66.0,61.7,30.22,North,350,1.0,6.0,86,0.00,,,0.00,meteohub,2013-01-28 00:02:00,
2013-01-27 19:07:00,65.8,61.5,30.23,NNW,331,0.0,6.0,86,0.00,,,0.00,meteohub,2013-01-28 00:07:00,
2013-01-27 19:12:00,65.8,61.5,30.23,NNW,331,0.0,5.0,86,0.00,,,0.00,meteohub,2013-01-28 00:12:00,
2013-01-27 19:17:00,65.8,61.9,30.23,NNW,345,0.0,4.0,87,0.00,,,0.00,meteohub,2013-01-28 00:17:00,
2013-01-27 19:22:00,65.8,61.9,30.23,North,349,0.0,4.0,87,0.00,,,0.00,meteohub,2013-01-28 00:22:00,
2013-01-27 19:27:00,65.7,61.7,30.23,North,354,0.0,5.0,87,0.00,,,0.00,meteohub,2013-01-28 00:27:00,
2013-01-27 19:32:00,65.7,61.7,30.23,NNW,336,3.0,5.0,87,0.00,,,0.00,meteohub,2013-01-28 00:32:00,
2013-01-27 19:37:00,65.7,61.7,30.23,NNW,346,3.0,4.0,87,0.00,,,0.00,meteohub,2013-01-28 00:37:00,
2013-01-27 19:42:00,65.7,62.1,30.23,NNW,343,1.0,4.0,88,0.00,,,0.00,meteohub,2013-01-28 00:42:00,
2013-01-27 19:47:00,65.5,61.9,30.24,NNW,329,2.0,3.0,88,0.00,,,0.00,meteohub,2013-01-28 00:47:00,
2013-01-27 19:52:00,65.5,61.9,30.24,NNW,329,0.0,3.0,88,0.00,,,0.00,meteohub,2013-01-28 00:52:00,
2013-01-27 19:57:00,65.5,61.9,30.24,North,354,0.0,4.0,88,0.00,,,0.00,meteohub,2013-01-28 00:57:00,
2013-01-27 20:02:00,65.5,61.9,30.24,North,354,0.0,5.0,88,0.00,,,0.00,meteohub,2013-01-28 01:02:00,
2013-01-27 20:07:00,65.3,62.1,30.24,North,354,0.0,5.0,89,0.00,,,0.00,meteohub,2013-01-28 01:07:00,
2013-01-27 20:12:00,65.1,61.9,30.24,North,354,0.0,5.0,89,0.00,,,0.00,meteohub,2013-01-28 01:12:00,
2013-01-27 20:17:00,64.9,61.7,30.24,North,354,0.0,2.0,89,0.00,,,0.00,meteohub,2013-01-28 01:17:00,
2013-01-27 20:22:00,64.9,61.7,30.24,North,354,0.0,2.0,89,0.00,,,0.00,meteohub,2013-01-28 01:22:00,
2013-01-27 20:27:00,64.9,61.9,30.24,North,350,0.0,2.0,90,0.00,,,0.00,meteohub,2013-01-28 01:27:00,
2013-01-27 20:32:00,64.8,61.7,30.24,North,354,1.0,2.0,90,0.00,,,0.00,meteohub,2013-01-28 01:32:00,
2013-01-27 20:37:00,64.8,61.7,30.24,North,350,0.0,1.0,90,0.00,,,0.00,meteohub,2013-01-28 01:37:00,
2013-01-27 20:42:00,64.6,61.5,30.24,North,359,0.0,1.0,90,0.00,,,0.00,meteohub,2013-01-28 01:42:00,
2013-01-27 20:47:00,64.6,61.5,30.25,North,359,0.0,1.0,90,0.00,,,0.00,meteohub,2013-01-28 01:47:00,
2013-01-27 20:52:00,64.2,61.2,30.25,North,354,0.0,1.0,90,0.00,,,0.00,meteohub,2013-01-28 01:52:00,
2013-01-27 20:57:00,64.0,61.0,30.25,North,359,0.0,1.0,90,0.00,,,0.00,meteohub,2013-01-28 01:57:00,
2013-01-27 21:02:00,63.9,60.8,30.25,North,359,0.0,1.0,90,0.00,,,0.00,meteohub,2013-01-28 02:02:00,
2013-01-27 21:07:00,63.9,60.8,30.25,ENE,66,0.0,3.0,90,0.00,,,0.00,meteohub,2013-01-28 02:07:00,
2013-01-27 21:12:00,63.9,61.2,30.25,ENE,66,0.0,3.0,91,0.00,,,0.00,meteohub,2013-01-28 02:12:00,
2013-01-27 21:17:00,63.7,60.6,30.25,ENE,70,0.0,3.0,90,0.00,,,0.00,meteohub,2013-01-28 02:17:00,
2013-01-27 21:22:00,64.0,60.4,30.25,ENE,71,1.0,3.0,88,0.00,,,0.00,meteohub,2013-01-28 02:22:00,
2013-01-27 21:27:00,64.4,60.4,30.25,East,81,0.0,3.0,87,0.00,,,0.00,meteohub,2013-01-28 02:27:00,
2013-01-27 21:32:00,64.8,59.9,30.25,East,99,2.0,5.0,84,0.00,,,0.00,meteohub,2013-01-28 02:32:00,
2013-01-27 21:37:00,65.3,59.7,30.25,East,95,0.0,5.0,82,0.00,,,0.00,meteohub,2013-01-28 02:37:00,
2013-01-27 21:42:00,65.7,59.4,30.25,East,89,0.0,5.0,80,0.00,,,0.00,meteohub,2013-01-28 02:42:00,
2013-01-27 21:47:00,66.2,59.2,30.25,ESE,106,2.0,8.0,78,0.00,,,0.00,meteohub,2013-01-28 02:47:00,
2013-01-27 21:52:00,66.6,59.2,30.25,ESE,105,7.0,9.0,77,0.00,,,0.00,meteohub,2013-01-28 02:52:00,
2013-01-27 21:57:00,66.9,59.2,30.25,ESE,114,3.0,9.0,76,0.00,,,0.00,meteohub,2013-01-28 02:57:00,
2013-01-27 22:02:00,66.9,59.2,30.25,ESE,111,5.0,9.0,76,0.00,,,0.00,meteohub,2013-01-28 03:02:00,
2013-01-27 22:07:00,67.1,59.4,30.25,SE,137,6.0,9.0,76,0.00,,,0.00,meteohub,2013-01-28 03:07:00,
2013-01-27 22:12:00,67.1,59.4,30.25,SSE,147,1.0,9.0,76,0.00,,,0.00,meteohub,2013-01-28 03:12:00,
2013-01-27 22:17:00,66.9,59.2,30.25,ESE,120,7.0,9.0,76,0.00,,,0.00,meteohub,2013-01-28 03:17:00,
2013-01-27 22:22:00,66.9,59.2,30.25,ESE,113,5.0,9.0,76,0.00,,,0.00,meteohub,2013-01-28 03:22:00,
2013-01-27 22:27:00,66.9,59.2,30.25,East,95,2.0,11.0,76,0.00,,,0.00,meteohub,2013-01-28 03:27:00,
2013-01-27 22:32:00,66.7,59.0,30.25,ESE,112,3.0,11.0,76,0.00,,,0.00,meteohub,2013-01-28 03:32:00,
2013-01-27 22:37:00,66.7,59.0,30.25,ESE,108,2.0,11.0,76,0.00,,,0.00,meteohub,2013-01-28 03:37:00,
2013-01-27 22:42:00,66.7,59.4,30.25,East,101,1.0,10.0,77,0.00,,,0.00,meteohub,2013-01-28 03:42:00,
2013-01-27 22:47:00,66.6,59.2,30.25,East,85,1.0,10.0,77,0.00,,,0.00,meteohub,2013-01-28 03:47:00,
2013-01-27 22:52:00,66.6,59.2,30.25,East,94,1.0,9.0,77,0.00,,,0.00,meteohub,2013-01-28 03:52:00,
2013-01-27 22:57:00,66.4,59.4,30.25,East,97,3.0,9.0,78,0.00,,,0.00,meteohub,2013-01-28 03:57:00,
2013-01-27 23:02:00,66.4,59.4,30.25,East,95,0.0,9.0,78,0.00,,,0.00,meteohub,2013-01-28 04:02:00,
2013-01-27 23:07:00,66.4,59.7,30.25,ESE,107,0.0,7.0,79,0.00,,,0.00,meteohub,2013-01-28 04:07:00,
2013-01-27 23:12:00,66.4,59.7,30.25,ESE,109,0.0,7.0,79,0.00,,,0.00,meteohub,2013-01-28 04:12:00,
2013-01-27 23:17:00,66.0,59.4,30.25,East,91,2.0,7.0,79,0.00,,,0.00,meteohub,2013-01-28 04:17:00,
2013-01-27 23:22:00,66.0,59.7,30.25,East,101,3.0,6.0,80,0.00,,,0.00,meteohub,2013-01-28 04:22:00,
2013-01-27 23:29:00,66.0,60.1,30.25,East,98,1.0,7.0,81,0.00,,,0.00,meteohub,2013-01-28 04:29:00,
2013-01-27 23:35:00,65.8,60.3,30.25,ESE,105,4.0,7.0,82,0.00,,,0.00,meteohub,2013-01-28 04:35:00,
2013-01-27 23:41:00,65.7,60.1,30.25,ESE,102,1.0,7.0,82,0.00,,,0.00,meteohub,2013-01-28 04:41:00,
2013-01-27 23:47:00,65.5,60.3,30.25,ESE,107,1.0,4.0,83,0.00,,,0.00,meteohub,2013-01-28 04:47:00,
2013-01-27 23:52:00,65.5,60.3,30.25,ESE,106,0.0,4.0,83,0.00,,,0.00,meteohub,2013-01-28 04:52:00,
2013-01-27 23:57:00,65.1,59.9,30.25,East,95,0.0,4.0,83,0.00,,,0.00,meteohub,2013-01-28 04:57:00,